Flag for South Africa Weather past 2 weeks in Cape Town, South Africa

Now
75 °F

Passing clouds.


Feels Like: 78 °F
Forecast: 65 / 71 °F
Wind: 7 mph from Southwest

Location: Cape Town International Airport

Current Time: Mar 30, 2015 at 11:50:02 AM

Latest Report: Mar 30, 2015 at 11:00 AM


Visibility: N/A

Pressure: 29.98 "Hg

Humidity: 57%

Dew point: 59 °F

Location of Cape TownLocation

Historic Weather in Cape Town — Graph

°F

Cape Town temperature yesterday

Maximum temperature yesterday: 77 °F (at 3:00 PM)
Minimum temperature yesterday: 59 °F (at 5:00 AM)
Average temperature yesterday: 68 °F

Past Weeks' High & Low Weather Summary

 TemperatureHumidityPressure
High82 °F (Mar 17, 3:00 PM)94% (Mar 16, 3:00 AM)30.15 "Hg (Mar 16, 3:00 AM)
Low57 °F (Mar 16, 5:00 AM)37% (Mar 17, 3:00 PM)29.71 "Hg (Mar 18, 5:00 AM)
Average68 °F71%29.95 "Hg
* Reported Mar 15 10:00 AM — Mar 30 10:00 AM, Cape Town, Weather by CustomWeather, © 2015

Note: Actual official high and low records may vary slightly from our data, if they occured in-between our weather recording intervals... More about our weather records

Advertising

Cape Town weather history for previous 24 hours

 ConditionsComfort  
Time TempWeatherWind HumidityBarometerVisibility
10:00 AM
Mon, Mar 30
72 °FPassing clouds.7 mph61%29.98 "HgN/A
9:00 AM68 °FSunny.7 mph73%29.98 "Hg10 mi
8:00 AM66 °FPassing clouds.7 mph73%29.95 "HgN/A
7:00 AM63 °FSunny.6 mph77%29.92 "Hg10 mi
6:00 AM64 °FSunny.7 mph73%29.92 "Hg10 mi
5:00 AM63 °FClear.5 mph83%29.92 "Hg10 mi
4:00 AM63 °FPassing clouds.5 mph77%29.92 "HgN/A
3:00 AM66 °FClear.8 mph73%29.95 "Hg10 mi
2:00 AM66 °FClear.8 mph68%29.95 "Hg10 mi
1:00 AM68 °FClear.12 mph69%29.95 "Hg10 mi
12:00 AM68 °FClear.8 mph69%29.95 "Hg10 mi
11:00 PM
Sun, Mar 29
70 °FClear.16 mph64%29.95 "Hg10 mi
10:00 PM70 °FClear.18 mph64%29.95 "Hg10 mi
9:00 PM70 °FClear.20 mph64%29.92 "Hg10 mi
8:00 PM72 °FClear.18 mph61%29.89 "Hg10 mi
7:00 PM68 °FClear.17 mph73%29.89 "Hg10 mi
6:00 PM72 °FClear.17 mph65%29.89 "Hg10 mi
5:00 PM75 °FSunny.14 mph61%29.89 "Hg10 mi
4:00 PM77 °FPassing clouds.14 mph57%29.89 "HgN/A
3:00 PM77 °FSunny.15 mph57%29.89 "Hg10 mi
2:00 PM75 °FSunny.15 mph57%29.89 "Hg10 mi
1:00 PM73 °FSunny.14 mph61%29.92 "Hg10 mi
12:00 PM73 °FSunny.13 mph61%29.92 "Hg10 mi
11:00 AM75 °FPassing clouds.12 mph57%29.92 "HgN/A
Weather by CustomWeather, © 2015

See weather overviewHow to use our weather pages